User: anonymous   Login
Location: ECC Obs
(38.4314°N, 90.9815°W)
Time: 11:48:24
(UTC-05:00)
Language:

Tiros 1 - Orbit

View from above orbital plane
View from above orbital plane
View from above satellite
View from above satellite

Ground track
Ground track

The orbit data is extracted from the following two-line orbital elements,

1    29U 60002B   20091.86765226 -.00000108 +00000-0 +14897-4 0  9996
2    29 048.3802 314.7686 0024499 260.8448 098.9692 14.74347905207098
Epoch (UTC): 31 March 2020 20:49:25
Eccentricity: 0.0024499
inclination: 48.3802°
perigee height: 630 km
apogee height: 664 km
right ascension of ascending node: 314.7686°
argument of perigee: 260.8448°
revolutions per day: 14.74347905
mean anomaly at epoch: 98.9692°
orbit number at epoch: 20709

The dashed part of the orbit path shows where the satellite is in the earth's shadow,  

DLR